Погода в Кумухе

Россия / Республика Дагестан     42°10′13″N   47°07′00″E
темп.,
°C
ветер,
м/с
пор.,
м/с
влажн.,
%
обл.,
%
осадки,
мм/ч
давл.,
гПа
погр.,
м
18 апреля, вс
вс1800:00+6з117399 0.0 101916
03:00+5зюз118348 0.0 101911
06:00+6зюз1179100 0.0 101821
09:00+11ссв2260100 0.0 1016734
12:00+15сз264511 0.0 10131792
15:00+17сз26349 0.0 10122221
18:00+10с337798 0.8 1016182
21:00+8юв0092100 1.9 1019153
19 апреля, пн
пн1900:00+8ююз226997 0.0 101828
03:00+8юз3259100 0.0 101624
06:00+8юз216576 0.0 101724
09:00+12ссв335270 0.0 10151040
12:00+15ссв4448100 0.0 10131339
15:00+14ссв3359100 0.3 10141007
18:00+12ссв116681 0.1 101365
21:00+9зюз2266100 0.1 101619
20 апреля, вт
вт2000:00+9ююз336078 0.0 101536
03:00+8юз4473100 0.0 101567
06:00+9ююз3370100 0.0 101454
09:00+16с1545100 0.0 1011795
12:00+19сз373097 0.0 10091648
15:00+19юз2834100 0.0 10081711
18:00+15ююз4552100 0.0 1009108
21:00+12ююз5660100 0.0 1011108
21 апреля, ср
ср2100:00+11ююз566045 0.0 101181
03:00+10ююз4467100 0.0 101245
06:00+10юз116825 0.0 101320
09:00+16с26432 0.0 10111214
12:00+20зюз4123253 0.0 10092812
15:00+9ссз8895100 4.0 1015540
18:00+9всв228736 7.2 1016283
21:00+8ссв2196100 7.2 1017232
22 апреля, чт
чт2200:00+7ссв2293100 0.0 1018259
03:00+7ссв229484 0.1 1018215
06:00+6св229797 0.0 1019255
09:00+7св329496 0.1 1019293
12:00+8ссв428564 0.0 1018497
15:00+8ссв438698 0.1 1019530
18:00+6св3291100 0.0 1019390
21:00+5ссв3295100 0.1 1020277